Flag for Canada Weather past 2 weeks in Welland, Ontario, Canada

Now
63 °F

Mild.


Feels Like: 63 °F
Forecast: 60 / 75 °F
Wind: 13 mph from Southwest

Location: Port Colborne Airport

Current Time: May 25, 2015 at 4:14:46 PM

Latest Report: May 25, 2015 at 3:00 PM


Visibility: N/A

Pressure: 30.04 "Hg

Humidity: 77%

Dew point: 56 °F

Location of WellandLocation

Historic Weather in Welland — Graph

°F

Welland temperature yesterday

Maximum temperature yesterday: 58 °F (at 11:00 PM)
Minimum temperature yesterday: 51 °F (at 12:00 AM)
Average temperature yesterday: 55 °F

Past Weeks' High & Low Weather Summary

 TemperatureHumidityPressure
High73 °F (May 17, 5:00 PM)99% (May 18, 11:00 AM)30.51 "Hg (May 18, 11:00 AM)
Low38 °F (May 20, 8:00 AM)20% (May 22, 6:00 PM)29.80 "Hg (May 12, 2:00 AM)
Average54 °F73%30.12 "Hg
* Reported May 10 2:00 PM — May 25 2:00 PM, Welland, Weather by CustomWeather, © 2015

Note: Actual official high and low records may vary slightly from our data, if they occured in-between our weather recording intervals... More about our weather records

Advertising

Welland weather history for previous 24 hours

 ConditionsComfort  
Time TempWeatherWind HumidityBarometerVisibility
2:00 PM
Mon, May 25
63 °FMild.18 mph70%30.05 "HgN/A
1:00 PM64 °FMild.18 mph74%30.07 "HgN/A
12:00 PM62 °FCool.18 mph68%30.08 "HgN/A
11:00 AM62 °FCool.17 mph67%30.08 "HgN/A
10:00 AM60 °FCool.12 mph66%30.10 "HgN/A
9:00 AM62 °FRefreshingly cool.2 mph60%30.11 "HgN/A
8:00 AM63 °FMild.8 mph58%30.12 "HgN/A
7:00 AM65 °FMild.12 mph52%30.11 "HgN/A
6:00 AM65 °FMild.13 mph51%30.11 "HgN/A
5:00 AM66 °FMild.14 mph51%30.11 "HgN/A
4:00 AM65 °FMild.8 mph57%30.13 "HgN/A
3:00 AM64 °FMild.9 mph60%30.14 "HgN/A
2:00 AM61 °FCool.7 mph67%30.16 "HgN/A
1:00 AM59 °FCool.6 mph62%30.16 "HgN/A
12:00 AM60 °FRefreshingly cool.2 mph57%30.16 "HgN/A
11:00 PM
Sun, May 24
58 °FCool.3 mph62%30.17 "HgN/A
10:00 PM58 °FCool.7 mph65%30.18 "HgN/A
9:00 PM56 °FCool.5 mph68%30.18 "HgN/A
8:00 PM56 °FCool.7 mph71%30.19 "HgN/A
7:00 PM58 °FCool.12 mph67%30.19 "HgN/A
6:00 PM56 °FCool.10 mph74%30.19 "HgN/A
5:00 PM57 °FCool.13 mph68%30.21 "HgN/A
4:00 PM57 °FCool.8 mph71%30.22 "HgN/A
Weather by CustomWeather, © 2015

See weather overviewHow to use our weather pages